Location: Unspecified
(54.1780°N, 0.0000°E)
Time: 12:09:37
(UTC+00:00)

Altair - Pass Details

Date: 25 June 2019
Orbit: 1501 x 1683 km, 47.2° (Epoch: 19 July)

Event Time Altitude Azimuth Distance (km) Brightness Sun altitude
Rises 01:51:31 0° 285° (WNW) 4,844 10.0 -8.9°
Reaches altitude 10° 01:55:22 10° 272° (W) 3,882 9.4 -8.7°
Maximum altitude 02:02:42 24° 224° (SW) 2,948 8.4 -8.2°
Drops below altitude 10° 02:10:08 10° 176° (S) 3,935 9.1 -7.7°
Sets 02:14:06 0° 164° (SSE) 4,924 9.7 -7.4°
